Change the Weather History Date:

Friday, March 15, 2013

  Actual Average Record
Temperature  
Mean Temperature 54 °F -  
Max Temperature 60 °F 53 °F 62 °F (2001)
Min Temperature 48 °F 39 °F 32 °F (2003)
Degree Days  
Heating Degree Days 11    
Growing Degree Days 4 (Base 50)    
Moisture  
Dew Point 44 °F    
Average Humidity 65    
Maximum Humidity 82    
Minimum Humidity 52    
Precipitation  
Precipitation 0.00 in - - ()
Sea Level Pressure  
Sea Level Pressure 29.35 in    
Wind  
Wind Speed 8 mph ()    
Max Wind Speed 18 mph    
Max Gust Speed -    
Visibility 6.2 miles    
Events      
Averages and records for this station are not official NWS values.
T = Trace of Precipitation, MM = Missing Value Source: Averaged Metar Reports

Daily Weather History Graph

Daily Weather History Graph

Search for Another Location

Airport or City:

Trip Planner

Search our weather history database for the weather conditions in past years. The results will help you decide how hot, cold, wet, or windy it might be!

Date:

Astronomy

Mar. 15, 2013 Rise Set
Actual Time 6:33 AM EET 6:28 PM EET
Civil Twilight 6:05 AM EET 6:55 PM EET
Nautical Twilight 5:34 AM EET 7:27 PM EET
Astronomical Twilight 5:01 AM EET 7:59 PM EET
Moon 8:09 AM EET (3/15) 10:26 PM EET (3/15)
Length of Visible Light 12h 49m
Length of Day
11h 54m
Waxing Crescent, 13% of the Moon is Illuminated
Mar 15
Waxing Crescent
Mar 19
First Quarter
Mar 27
Full
Apr 3
Last Quarter
Apr 10
New

Hourly Weather History & Observations

Time (EET) Temp. Dew Point Humidity Pressure Visibility Wind Dir Wind Speed Gust Speed Precip Events Conditions
5:20 AM 51.8 °F 42.8 °F 71% 29.27 in 6.2 mi SW 13.8 mph - N/A   Scattered Clouds
5:50 AM 51.8 °F 44.6 °F 76% 29.27 in 6.2 mi SSW 9.2 mph - N/A   Scattered Clouds
6:20 AM 50.0 °F 42.8 °F 76% 29.27 in 6.2 mi West 4.6 mph - N/A   Scattered Clouds
6:50 AM 48.2 °F 41.0 °F 76% 29.30 in 6.2 mi Calm Calm - N/A   Scattered Clouds
7:20 AM 48.2 °F 41.0 °F 76% 29.30 in 6.2 mi North 4.6 mph - N/A   Scattered Clouds
7:50 AM 50.0 °F 44.6 °F 82% 29.30 in 6.2 mi NE 4.6 mph - N/A   Scattered Clouds
8:20 AM 53.6 °F 46.4 °F 77% 29.33 in 6.2 mi Calm Calm - N/A   Mostly Cloudy
8:50 AM 53.6 °F 46.4 °F 77% 29.33 in 6.2 mi Calm Calm - N/A   Mostly Cloudy
9:20 AM 55.4 °F 46.4 °F 72% 29.33 in 6.2 mi WNW 5.8 mph - N/A   Mostly Cloudy
9:50 AM 57.2 °F 48.2 °F 72% 29.33 in 6.2 mi WNW 4.6 mph - N/A   Mostly Cloudy
10:20 AM 57.2 °F 48.2 °F 72% 29.36 in 6.2 mi WNW 5.8 mph - N/A   Mostly Cloudy
10:50 AM 57.2 °F 46.4 °F 67% 29.36 in 6.2 mi West 6.9 mph - N/A   Mostly Cloudy
11:20 AM 59.0 °F 46.4 °F 63% 29.36 in 6.2 mi WSW 9.2 mph - N/A   Scattered Clouds
11:50 AM 59.0 °F 44.6 °F 59% 29.36 in 6.2 mi WSW 10.4 mph - N/A   Scattered Clouds
12:20 PM 59.0 °F 44.6 °F 59% 29.36 in 6.2 mi SW 13.8 mph - N/A   Scattered Clouds
12:50 PM 59.0 °F 44.6 °F 59% 29.36 in 6.2 mi SW 13.8 mph - N/A   Scattered Clouds
1:50 PM 59.0 °F 42.8 °F 55% 29.36 in 6.2 mi WSW 11.5 mph - N/A   Scattered Clouds
2:20 PM 59.0 °F 42.8 °F 55% 29.36 in 6.2 mi WSW 11.5 mph - N/A   Scattered Clouds
2:50 PM 60.8 °F 44.6 °F 55% 29.36 in 6.2 mi SW 16.1 mph - N/A   Scattered Clouds
3:20 PM 60.8 °F 44.6 °F 55% 29.36 in 6.2 mi SW 16.1 mph - N/A   Scattered Clouds
3:50 PM 60.8 °F 42.8 °F 52% 29.36 in 6.2 mi SW 9.2 mph - N/A   Scattered Clouds
4:20 PM 59.0 °F 42.8 °F 55% 29.36 in 6.2 mi SW 13.8 mph - N/A   Scattered Clouds
4:50 PM 59.0 °F 42.8 °F 55% 29.36 in 6.2 mi SW 13.8 mph - N/A   Mostly Cloudy
5:20 PM 57.2 °F 42.8 °F 59% 29.36 in 6.2 mi SW 16.1 mph - N/A   Mostly Cloudy
5:50 PM 57.2 °F 42.8 °F 59% 29.36 in 6.2 mi SW 18.4 mph - N/A   Mostly Cloudy
6:20 PM 55.4 °F 42.8 °F 63% 29.39 in 6.2 mi West 17.3 mph - N/A   Mostly Cloudy
6:50 PM 55.4 °F 44.6 °F 67% 29.39 in 6.2 mi NW 10.4 mph - N/A   Mostly Cloudy
7:20 PM 53.6 °F 42.8 °F 67% 29.42 in 6.2 mi WNW 5.8 mph - N/A   Mostly Cloudy
7:50 PM 53.6 °F 42.8 °F 67% 29.42 in 6.2 mi West 8.1 mph - N/A   Mostly Cloudy